Regional Weather Roundup
Issued by NWS Cleveland, OH

Home | Current Version | Previous Version | Graphics & Text | Print | Product List | Glossary On
Versions: 1 2 3 4 5 6 7 8 9 10 11 12 13 14 15 16 17 18 19 20 21 22 23 24 25 26 27 28 29 30 31 32 33 34 35 36 37 38 39 40 41 42 43 44 45 46 47 48 49 50
477
ASUS41 KCLE 230712
RWRCLE
OHIO REGIONAL WEATHER ROUNDUP
NATIONAL WEATHER SERVICE WILMINGTON, OH
300 AM EDT TUE MAY 23 2017

NOTE: "FAIR" INDICATES FEW OR NO CLOUDS BELOW 12,000 FEET WITH NO
SIGNIFICANT WEATHER AND/OR OBSTRUCTIONS TO VISIBILITY.

OHZ001>008-015>018-024>027-034-035-043-044-230800-
   NORTHWEST OHIO

CITY           SKY/WX    TMP DP  RH WIND       PRES   REMARKS
DEFIANCE       FAIR      55  47  74 S3        29.93F
FINDLAY        FAIR      54  47  77 S8        29.94F
TOLEDO EXPRESS FAIR      53  49  86 S5        29.93F
TOLEDO EXEC    FAIR      54  49  83 S5        29.94F
LIMA           FAIR      54  50  86 S7        29.95F
$$

OHZ009>014-019>023-028>033-038-089-230800-
   NORTHEAST OHIO

CITY           SKY/WX    TMP DP  RH WIND       PRES   REMARKS
CLE-HOPKINS    MOCLDY    58  47  66 S8        29.99F
CLE-LAKEFRONT  FAIR      58  47  66 S10       29.96F
CUY CO. ARPT   NOT AVBL
LORAIN-ELYRIA  FAIR      53  44  71 S3        29.97F
ASHTABULA      FAIR      51  48  89 S3        29.99F
AKRON-CANTON   FAIR      53  45  74 CALM      29.99F
WOOSTER        FAIR      51  47  86 CALM      29.99F
MANSFIELD      FAIR      51  46  83 S5        29.98F
YOUNGSTOWN     MOCLDY    51  44  77 S3        30.00F
$$

OHZ042-051>053-060>062-070>072-077>081-230800-
  SOUTHWEST OHIO

CITY           SKY/WX    TMP DP  RH WIND       PRES   REMARKS
CINC-COVINGTON MOCLDY    54  48  80 E3        29.94F
CINC-LUNKEN    FAIR      51  51 100 CALM      29.96F
HAMILTON       FAIR      50  50 100 CALM      29.96F
DAYTON         MOCLDY    56  45  66 S5        29.97F
WRIGHT-PAT AFB FAIR      54  50  86 CALM      29.96F
DAYTON GENERAL FAIR      54  46  74 CALM      29.95F
WILMINGTON     FAIR      53  47  79 CALM      29.96F
$$

OHZ036-037-039>041-045>050-054>059-063>069-073>076-082>088-230800-
  CENTRAL AND SOUTHEAST OHIO

CITY           SKY/WX    TMP DP  RH WIND       PRES   REMARKS
COLUMBUS       CLOUDY    52  49  89 CALM      29.97F
OSU AIRPORT    FAIR      52  49  89 CALM      29.97F
BOLTON FIELD   FAIR      52  50  93 CALM      29.97F
RICKENBACK AFB FAIR      52  48  87 NE3       29.97F
NEWARK         FAIR      50  48  93 CALM      29.97F
MARION         FAIR      52  47  83 S8        29.97F
LANCASTER      FAIR      52  49  89 CALM      29.98F
ZANESVILLE     FAIR      50  47  89 N3        29.97F
NEW PHILLY     FAIR      50  48  93 CALM      30.00F
$$




USA.gov is the U.S. government's official web portal to all federal, state and local government web resources and services.